JA3VQW-13 Hirakata JP current weather conditions

sailwx.info

Wind from 295 at 0 knots gusting 2

Air temperature 6.1° C
Dewpoint -6.5° C

Last reported at 2017-Nov-19 16:59 UTC.
Time now 2017-Nov-19 18:05 UTC

Location: N 34°48' E 135°40'.
View on Google Maps.

See reports from other nearby stations

  
Tides and Currents Weather Stations Pressure Air Temp Water Temp Dewpoint Dewpoint Depression Visibility Wind Speed Wind Dir Waves Ship Positions
date/time (UTC)wind fromknots sea level pressurealtimeterstation pressurevisibilityair tempwater tempwave heightnotes
2017-Nov-19 16:59 295 0 gusting 2 6.1
2017-Nov-19 16:44 270 6.1
2017-Nov-19 16:29 292 1 gusting 2 6.1
2017-Nov-19 16:14 313 1 gusting 2 6.1
2017-Nov-19 15:59 292 0 gusting 1 6.7
2017-Nov-19 15:29 312 6.7
2017-Nov-19 15:14 298 0 gusting 2 6.7
2017-Nov-19 14:59 292 1 gusting 4 6.7
2017-Nov-19 14:44 186 6.7
2017-Nov-19 14:28 269 6.7
2017-Nov-19 13:58 270 6.7
2017-Nov-19 13:28 201 6.7
2017-Nov-19 12:58 270 6.7
2017-Nov-19 12:29 292 6.7
2017-Nov-19 11:58 292 6.7
2017-Nov-19 11:28 270 6.7
2017-Nov-19 10:58 292 6.7
2017-Nov-19 10:28 292 2 gusting 5 7.2
2017-Nov-19 09:58 295 2 gusting 4 7.8
2017-Nov-19 09:28 292 8.3
2017-Nov-19 08:58 303 4 gusting 4 8.9
2017-Nov-19 08:28 309 0 gusting 5 8.9
2017-Nov-19 07:58 298 1 gusting 2 9.4
2017-Nov-19 07:28 314 2 gusting 4 10.0
2017-Nov-19 06:58 290 0 gusting 4 10.6
2017-Nov-19 06:44 309 11.1
2017-Nov-19 06:29 275 0 gusting 5 11.1
2017-Nov-19 06:14 283 0 gusting 4 11.1
2017-Nov-19 05:58 277 2 gusting 5 11.1
2017-Nov-19 05:44 288 5 gusting 6 11.1
2017-Nov-19 05:28 298 6 gusting 7 11.1
2017-Nov-19 05:14 270 5 gusting 6 11.1
2017-Nov-19 04:59 285 4 gusting 6 11.7
2017-Nov-19 04:29 282 6 gusting 10 11.1
2017-Nov-19 03:59 284 5 gusting 7 11.1
2017-Nov-19 03:29 297 4 gusting 10 11.1
2017-Nov-19 02:58 282 4 gusting 8 11.1
2017-Nov-19 02:29 273 2 gusting 6 12.2
2017-Nov-19 01:58 236 2 gusting 2 12.2
2017-Nov-19 01:28 268 2 gusting 5 12.8
2017-Nov-19 00:58 260 2 gusting 4 11.1
2017-Nov-19 00:44 277 5 gusting 6 10.6
2017-Nov-19 00:29 288 0 gusting 5 11.1
2017-Nov-19 00:14 280 4 gusting 5 10.6
2017-Nov-18 23:59 255 9.4
2017-Nov-18 23:44 294 8.3
2017-Nov-18 23:29 315 1 gusting 2 7.8
2017-Nov-18 23:14 297 7.8
2017-Nov-18 22:59 292 7.8
2017-Nov-18 22:44 270 7.2
2017-Nov-18 22:29 294 6.7
2017-Nov-18 22:14 196 6.1
2017-Nov-18 21:59 226 6.1
2017-Nov-18 21:29 232 6.7
2017-Nov-18 21:14 292 7.2
2017-Nov-18 20:59 307 6.7
2017-Nov-18 20:44 285 0 gusting 2 6.7
2017-Nov-18 20:29 198 6.7
2017-Nov-18 20:14 233 6.7
2017-Nov-18 19:59 253 6.7
2017-Nov-18 19:44 288 0 gusting 2 7.2
2017-Nov-18 19:28 306 2 gusting 4 7.2
2017-Nov-18 19:14 301 2 gusting 5 7.2
2017-Nov-18 18:59 315 7.2
2017-Nov-18 18:44 246 7.2
2017-Nov-18 18:29 298 1 gusting 6 7.2
2017-Nov-18 18:14 286 0 gusting 2 7.2
2017-Nov-18 17:59 090 7.2
2017-Nov-18 17:44 303 2 gusting 4 7.8
2017-Nov-18 17:28 253 1 gusting 4 7.8
2017-Nov-18 17:14 292 7.2
2017-Nov-18 16:59 284 7.8
2017-Nov-18 16:44 300 4 gusting 5 7.8
2017-Nov-18 16:28 294 1 gusting 6 7.8
2017-Nov-18 15:58 135 8.3
2017-Nov-18 15:44 292 8.3
2017-Nov-18 15:29 077 8.3
2017-Nov-18 15:14 135 8.3
2017-Nov-18 14:58 180 8.9
2017-Nov-18 14:44 315 8.9
2017-Nov-18 14:28 296 8.9
2017-Nov-18 14:14 263 8.9
2017-Nov-18 13:58 247 9.4
2017-Nov-18 13:28 214 9.4
2017-Nov-18 13:14 215 0 gusting 1 10.0
2017-Nov-18 12:58 085 10.0
2017-Nov-18 12:28 241 10.6
2017-Nov-18 12:14 009 10.6
2017-Nov-18 11:58 225 11.1
2017-Nov-18 11:28 298 0 gusting 5 11.1
2017-Nov-18 10:58 293 11.7
2017-Nov-18 10:44 289 11.7
2017-Nov-18 10:28 270 11.7
2017-Nov-18 09:58 310 12.2
2017-Nov-18 09:28 289 12.2
2017-Nov-18 09:14 287 12.8
2017-Nov-18 08:58 301 1 gusting 2 12.8
2017-Nov-18 08:44 301 2 gusting 5 13.3
2017-Nov-18 08:28 239 0 gusting 2 13.3
2017-Nov-18 07:58 205 13.3
2017-Nov-18 07:28 135 0 13.3
2017-Nov-18 06:59 225 13.3
2017-Nov-18 06:28 315 13.3
2017-Nov-18 06:14 045 13.3
2017-Nov-18 05:58 045 13.3
2017-Nov-18 05:44 045 13.3
2017-Nov-18 05:28 045 13.3
2017-Nov-18 05:14 045 13.3
2017-Nov-18 04:58 045 12.8
2017-Nov-18 04:28 045 12.8
2017-Nov-18 03:59 045 12.8
2017-Nov-18 03:28 045 12.8
2017-Nov-18 03:14 045 12.8
2017-Nov-18 02:58 045 12.8
2017-Nov-18 02:44 045 12.2
2017-Nov-18 02:28 270 12.2
2017-Nov-18 01:58 248 12.2
2017-Nov-18 01:28 248 12.2
2017-Nov-18 01:14 248 11.7
2017-Nov-18 00:58 248 11.7
2017-Nov-18 00:28 248 11.1
2017-Nov-17 23:58 248 11.1
2017-Nov-17 23:44 248 10.6
2017-Nov-17 23:28 248 10.6
2017-Nov-17 22:58 248 10.6
2017-Nov-17 22:44 248 10.0
2017-Nov-17 22:29 248 10.0
2017-Nov-17 21:58 248 9.4
2017-Nov-17 21:44 248 9.4
2017-Nov-17 21:29 248 9.4
2017-Nov-17 21:14 315 9.4
2017-Nov-17 20:59 292 9.4
2017-Nov-17 20:44 315 9.4
2017-Nov-17 20:29 315 9.4
2017-Nov-17 19:58 270 10.0
2017-Nov-17 19:44 270 10.0
2017-Nov-17 19:28 270 10.0
2017-Nov-17 18:58 270 9.4
2017-Nov-17 18:44 270 9.4
2017-Nov-17 18:29 270 9.4
2017-Nov-17 18:14 270 9.4